Overview Statistics Trail Chart Weather Telemetry Raw packets
 

This is the latest recevied weather packets stored in our database for station/object KE0TNI-13. If no packets are shown the sender has not sent any weather packets the latest 10 day(s).

<< 59 60 61 62 63 64 65 >>
Time Temp. Humidity Pressure Rain* Wind** Luminosity Snow
1777266698 2.22° C 65% 1009.1 hPa 0 mm - 0 W/m² -
1777266395 2.22° C 66% 1009.2 hPa 0 mm - 0 W/m² -
1777266092 2.22° C 67% 1008.9 hPa 0 mm - 0 W/m² -
1777265791 1.67° C 68% 1009.1 hPa 0 mm - 0 W/m² -
1777265487 1.67° C 77% 1009.2 hPa 0 mm - 0 W/m² -
1777265183 1.11° C 88% 1008.9 hPa 0 mm - 0 W/m² -
1777264880 0.56° C 90% 1009.3 hPa 0 mm - 0 W/m² -
1777264578 0.56° C 92% 1009.5 hPa 0 mm - 0 W/m² -
1777264274 0.56° C 92% 1009.5 hPa 0 mm - 0 W/m² -
1777263972 0.56° C 92% 1009.3 hPa 0 mm - 0 W/m² -
1777263669 0.56° C 92% 1009.5 hPa 0 mm - 0 W/m² -
1777263366 0° C 91% 1009.3 hPa 0 mm - 0 W/m² -
1777263062 0° C 91% 1009.7 hPa 0 mm - 0 W/m² -
1777262759 0° C 91% 1009.5 hPa 0 mm - 0 W/m² -
1777262455 0° C 90% 1009.3 hPa 0 mm - 0 W/m² -
1777262152 0° C 90% 1009.3 hPa 0 mm - 0 W/m² -
1777261849 0° C 90% 1009.2 hPa 0 mm - 0 W/m² -
1777261545 0° C 90% 1009.5 hPa 0 mm - 0 W/m² -
1777261243 0° C 89% 1009.3 hPa 0 mm - 0 W/m² -
1777260942 0° C 89% 1008.9 hPa 0 mm - 0 W/m² -
1777260638 0° C 89% 1008.7 hPa 0 mm - 0 W/m² -
1777260333 0° C 88% 1008.9 hPa 0 mm - 0 W/m² -
1777260030 0° C 87% 1008.8 hPa 0 mm - 0 W/m² -
1777259726 0° C 87% 1008.6 hPa 0 mm - 0 W/m² -
1777259424 0° C 86% 1008.7 hPa 0 mm - 0 W/m² -

* Rain latest hour (hover to see other rain measurements)
** Current wind speed in m/s (hover to see current wind gust speed)